FENGYUN 1C DEB, 35239

Orbit data source: Space-Track

FENGYUN 1C DEB, 35239 is space debris in SSO originally from a launch on Mon, 10 May 1999 UTC launched from the Taiyaun Space Center, China (TSC). Fengyun 1C debris stems from the Chinese weather satellite Fengyun-1C, which was intentionally destroyed by a Chinese anti-satellite missile in 2007. This event dramatically increased the amount of space debris, with thousands of trackable fragments posing hazards to satellites and human spaceflight. The Fengyun 1C debris cloud has become a focal point in discussions about space sustainability and the need for international regulations to prevent the creation of new debris.

Loading next visibility...
Identifier
35239, 1999-025DQX
Orbit
SSO
Country
Flag of CNCN / PRC
Related business
Manufacturer
Unknown
Mission
Spacecraft
Bus & Motor
Unknown
Mass
Unknown
Launch date (UTC)
1999-05-10 (27 years ago)
Launch vehicle
Unknown
Launch site
Taiyaun Space Center, China (TSC)
Object type
Payload
Rocket body
Debris
Shape & HBR
Unknown shape, 0.1 m
Radar Cross Section
Small (<0.1 m²)

Expand to show TLE details & history
Last TLE update: 2 days ago

TLE from 2 days ago
0 FENGYUN 1C DEB
1 35239U 99025DQX 25346.39981341  .00001302  00000-0  12895-2 0  9998
2 35239  99.2659 147.0912 0229701  11.2565 349.3598 13.69214451581268
Epoch: 2025-12-12T09:35Z
TLE epoch observation values (Epoch: 2025-12-12T09:35:43.878Z)
Latitude
-0.00009°
Longitude
-78.1836°
Altitude
838.71 km
Speed
7.517 km/s
True Right ascension
09h 48m 21s
True Declination
0° 00' 00"
Sunlit
Object was in daylight at epoch
Visualization orbit readout
Latitude
Unknown
Longitude
Unknown
Altitude
Unknown
Speed
Unknown
Apparent Right ascension
Unknown
Apparent Declination
Unknown
Sunlit
N/A
Visualization observer readout
Local Sidereal Time
20:42:55
Azimuth
Unknown
Elevation
Unknown
Doppler factor
Unknown
Orbital elements
Apogee altitude
1,169.113 km
Perigee altitude
830.176 km
Semi-major axis
7,377.781 km
Eccentricity
0.02297
Inclination
99.2659°
RAAN
147.0912°
Arg. of periapsis
11.2565°
True anomaly
348.8597°
Mean anomaly
349.3598°
Eccentric anomaly
349.11119°
Mean motion
3.42495 °/min
Orbital period
105.11 mins
BSTAR
0.0012895
Loading maneuver chart data...
Computing Atmospheric mass density...

Documentation

Showing up to 5 results
|